Location: Foulognes
(49.1413°N, 0.8183°W)
Time: 04:31:07
(UTC+00:00)

Cosmos 44 - Pass Details

Date: 21 October 2019
Orbit: 593 x 769 km, 65.1° (Epoch: 18 November)

Event Time Altitude Azimuth Distance (km) Brightness Sun altitude
Rises 19:02:28 0° 203° (SSW) 3,103 6.9 -20.3°
Reaches altitude 10° 19:04:54 10° 199° (SSW) 2,159 6.0 -20.7°
Maximum altitude 19:09:40 54° 123° (ESE) 820 3.3 -21.5°
Enters shadow 19:09:44 54° 120° (ESE) 820 3.3 -21.5°
